Showing default

FLOCK 4H 10, 66713

Orbit data source: Space-Track

FLOCK 4H 10, 66713 is a payload satellite owned by Planet (US) in SSO that was launched on Fri, 28 Nov 2025 UTC via an FALCON 9 launch vehicle from the Air Force Western Test Range (AFWTR). Payload-class satellites include a variety of spacecraft equipped with specific instruments for various scientific and technological missions. These include communications satellites like Starlink; space stations such as the ISS; scientific satellites like the Hubble; Earth observation satellites from companies like Planet Labs, Umbra, and HawkEye 360; GPS; miniature CubeSats for education and research; and military/defense satellites.

Loading next visibility...
Identifier
66713, 2025-276AZ
Orbit
SSO
Country
Flag of USUS
Related business
Manufacturer
Planet
Mission
Partially operational Commercial Imaging
Bus & Motor
CUBESAT 3U, Unknown motor
Mass
5.7 kg wet, 5.7 kg dry
Launch date (UTC)
2025-11-28 (9 months ago)
Launch vehicle
FALCON 9
Launch site
Air Force Western Test Range (AFWTR)
Object type
Payload
Rocket body
Debris
Shape & HBR
Box + 2 Pan, 1.0 m
Radar Cross Section
0.072 m², Medium (>0.1 m² and < 1m²)

Expand to show TLE details & history
Last TLE update: 13 hours ago

TLE from 13 hours ago
0 FLOCK 4H 10
1 66713U 25276AZ  26238.18542640  .00005015  00000-0  23182-3 0  9996
2 66713  97.4152 310.5210 0006137 113.0973 247.0910 15.20604745 41053
Epoch: 2026-08-26T04:27Z
TLE epoch observation values (Epoch: 2026-08-26T04:27:00.840Z)
Latitude
-0.00004°
Longitude
-90.67455°
Altitude
508.753 km
Speed
7.609 km/s
True Right ascension
20h 42m 05s
True Declination
0° 00' 00"
Sunlit
Object was in full shadow at epoch
Visualization orbit readout
Latitude
Unknown
Longitude
Unknown
Altitude
Unknown
Speed
Unknown
Apparent Right ascension
Unknown
Apparent Declination
Unknown
Sunlit
N/A
Visualization observer readout
Local Sidereal Time
08:21:17
Azimuth
Unknown
Elevation
Unknown
Doppler factor
Unknown
Orbital elements
Apogee altitude
505.202 km
Perigee altitude
496.759 km
Semi-major axis
6,879.118 km
Eccentricity
0.00061
Inclination
97.4152°
RAAN
310.521°
Arg. of periapsis
113.0973°
True anomaly
247.02624°
Mean anomaly
247.091°
Eccentric anomaly
247.05862°
Mean motion
3.80403 °/min
Orbital period
94.64 mins
BSTAR
0.00023182
Loading maneuver chart data...
Computing Atmospheric mass density...
Loading historical data...
Loading historical data...
Loading historical data...
Loading historical data...
Loading historical data...
Loading historical data...
Loading historical data...

Documentation

Showing up to 5 results
|